NV6B Weather Reports


Display with metric or nautical units.
time (UTC)temp
F
wind
direction
speed
MPH
gust
MPH
rain 1hr
in
rain 24hr
in
rain mn
in
humidity
%
barometer
mb
20260503020518 75 316 0.0 1.0 0.00 0.00 0.00 37 1007.3
20260503015518 75 316 0.0 3.0 0.00 0.00 0.00 36 1007.3
20260503014518 76 314 0.0 4.0 0.00 0.00 0.00 35 1007.2
20260503013518 77 322 0.0 2.0 0.00 0.00 0.00 34 1007.3
20260503012518 77 322 1.0 5.0 0.00 0.00 0.00 33 1007.4
20260503011518 78 1 0.0 3.0 0.00 0.00 0.00 32 1007.6
20260503010517 78 1 0.0 2.0 0.00 0.00 0.00 32 1007.6
20260503005517 79 1 1.0 4.0 0.00 0.00 0.00 31 1007.7
20260503004517 80 359 1.0 8.0 0.00 0.00 0.00 30 1007.6
20260503003517 81 13 2.0 3.0 0.00 0.00 0.00 27 1007.6
20260503002517 81 13 1.0 2.0 0.00 0.00 0.00 26 1007.6
20260503001517 82 13 0.0 4.0 0.00 0.00 0.00 24 1007.8
20260503000517 82 61 2.0 3.0 0.00 0.00 0.00 22 1007.8
20260502235517 83 13 1.0 4.0 0.00 0.00 0.00 22 1007.9
20260502234537 82 43 2.0 4.0 0.00 0.00 0.00 24 1007.9
20260502233516 82 87 0.0 1.0 0.00 0.00 0.00 23 1008.0
20260502232516 83 87 0.0 5.0 0.00 0.00 0.00 25 1008.0
20260502231516 83 56 1.0 4.0 0.00 0.00 0.00 22 1008.0
20260502230516 84 55 0.0 4.0 0.00 0.00 0.00 21 1008.2
20260502225516 83 135 0.0 2.0 0.00 0.00 0.00 21 1008.3
20260502224516 84 135 1.0 7.0 0.00 0.00 0.00 20 1008.4
20260502223516 84 134 4.0 7.0 0.00 0.00 0.00 23 1008.6
20260502222516 83 79 0.0 5.0 0.00 0.00 0.00 23 1008.7
20260502221516 85 155 2.0 7.0 0.00 0.00 0.00 20 1008.7
20260502220516 84 176 3.0 7.0 0.00 0.00 0.00 21 1008.9
20260502215515 84 116 4.0 9.0 0.00 0.00 0.00 22 1009.1
20260502214516 84 120 0.0 7.0 0.00 0.00 0.00 22 1009.2
20260502213515 84 99 3.0 7.0 0.00 0.00 0.00 22 1009.4
20260502212515 84 133 3.0 7.0 0.00 0.00 0.00 23 1009.5
20260502211515 82 139 0.0 6.0 0.00 0.00 0.00 21 1009.5
20260502210515 83 125 3.0 5.0 0.00 0.00 0.00 25 1009.7
20260502205515 82 156 1.0 9.0 0.00 0.00 0.00 24 1009.8
20260502204515 85 75 3.0 10.0 0.00 0.00 0.00 25 1009.9
20260502203515 85 93 7.0 10.0 0.00 0.00 0.00 24 1009.9
20260502202515 85 124 3.0 7.0 0.00 0.00 0.00 25 1010.0
20260502201514 83 62 1.0 17.0 0.00 0.00 0.00 24 1010.1
20260502200514 82 181 3.0 7.0 0.00 0.00 0.00 25 1010.3
20260502195514 83 105 3.0 8.0 0.00 0.00 0.00 26 1010.4
20260502163533 63 197 3.0 8.0 0.00 0.00 0.00 46 1013.2
20260502162512 62 147 2.0 7.0 0.00 0.00 0.00 46 1013.2
20260502161512 62 189 3.0 10.0 0.00 0.00 0.00 47 1013.3
20260502160512 61 123 2.0 10.0 0.00 0.00 0.00 45 1013.3
20260502151511 55 158 1.0 6.0 0.00 0.00 0.00 55 1013.2
20260502150512 54 143 6.0 6.0 0.00 0.00 0.00 58 1013.0
20260502115510 51 141 0.0 4.0 0.00 0.00 0.00 59 1012.2
20260502114509 52 141 3.0 7.0 0.00 0.00 0.00 59 1012.2
20260502113509 52 141 3.0 7.0 0.00 0.00 0.00 59 1012.3
20260502112509 52 130 1.0 5.0 0.00 0.00 0.00 59 1012.3
20260502111509 52 137 3.0 8.0 0.00 0.00 0.00 60 1012.4
20260502110509 51 141 3.0 8.0 0.00 0.00 0.00 61 1012.3
20260502071507 50 132 2.0 6.0 0.00 0.00 0.00 66 1012.6
20260502070507 50 56 3.0 3.0 0.00 0.00 0.00 66 1012.7
20260502065507 50 43 0.0 0.0 0.00 0.00 0.00 65 1012.7
20260502064507 51 43 0.0 0.0 0.00 0.00 0.00 65 1012.8
20260502063507 51 42 0.0 0.0 0.00 0.00 0.00 64 1012.8
20260502032505 66 38 1.0 3.0 0.00 0.00 0.00 41 1012.5
20260502031505 66 37 0.0 3.0 0.00 0.00 0.00 38 1012.3
20260502030504 67 37 0.0 3.0 0.00 0.00 0.00 38 1012.2
20260502025505 68 37 2.0 3.0 0.00 0.00 0.00 36 1012.1
20260502024505 69 37 0.0 3.0 0.00 0.00 0.00 36 1012.1
20260502023504 71 38 0.0 0.0 0.00 0.00 0.00 37 1012.0
20260502022504 72 38 0.0 0.0 0.00 0.00 0.00 35 1012.0
20260502021504 73 37 0.0 2.0 0.00 0.00 0.00 34 1012.0